カタログに戻る

VANGUARD DEB

運用中UNKNOWN
NORAD 61446·DEBRIS·🇺🇸 United States

打ち上げ Feb 17, 1959 から Cape Canaveral Space Force Station

Loading…

次のパス (今後24時間)

TLE

最新Source: Space-Track

元期: Sep 9, 2026, 06:59 UTC

1 61446U 59001E   26252.29118647  .00001035  00000-0  38738-3 0  9992
2 61446  32.8705  93.5493 1216150 277.5407 261.5082 12.44861854995379

AllMySatでVANGUARD DEBをリアルタイム追跡

Download on the App Store